Regional Weather Roundup
Issued by NWS Pendleton, OR

Home | Current Version | Previous Version | Text Only | Print | Product List | Glossary On
Versions: 1 2 3 4 5 6 7 8 9 10 11 12 13 14 15 16 17 18 19 20 21 22 23 24 25 26 27 28 29 30 31 32 33 34 35 36 37 38 39 40 41 42 43 44 45 46 47 48 49 50
000
ASUS46 KPDT 232110
RWRPDT
PENDLETON REGIONAL WEATHER ROUNDUP
NATIONAL WEATHER SERVICE PENDLETON OREGON
200 PM PDT TUE SEP 23 2014

NOTE: FAIR INDICATES FEW OR NO CLOUDS BELOW 12,000 FEET WITH NO
SIGNIFICANT WEATHER AND/OR OBSTRUCTIONS TO VISIBILITY.

# INDICATES UNOFFICIAL STATION AND DATA

WAZ520-232210-
EAST SLOPES OF WASHINGTON CASCADES

CITY            SKY/WX      TMP DP  RH  WIND    PRES   REMARKS
#BUMPING DAM    N/A         59  N/A N/A S1      N/A
#CLE ELUM HS    N/A         61  52  72  CALM    29.85F
#CLE ELUM 2NW   N/A         61  51  70  CALM    N/A
#CLE ELUM LAKE  N/A         60  52  75  CALM    29.77F
#CLIFFDEL 2NW   N/A         63  49  60  E1      N/A
#EASTON DOT     N/A         58  53  83  CALM    N/A
#GLENWOOD       N/A         66  55  68  CALM    29.81F
#MANASTASH CYN  N/A         63  49  60  CALM    29.88F
#NELSON         N/A         59  54  83  CALM    29.82F
#NELSON 3SW     N/A         59  51  75  CALM    29.99F
#NILE           N/A         66  53  63  CALM    29.10R
#PEOH POINT     N/A         58  46  64  E2      N/A
#SNOWDEN        N/A         69  38  32  N1      N/A
#TEANAWAY 4NE   N/A         62  55  78  CALM    N/A
#TROUT LAKE 1NE N/A         67  54  63  CALM    29.80F
$$

WAZ521-232210-
SIMCOE HIGHLANDS

CITY            SKY/WX      TMP DP  RH  WIND    PRES   REMARKS
#BICKLETON HS   N/A         71  40  32  W7      29.97F
#SATUS PASS DOT N/A         70  45  41  CALM    N/A
#CENTERVILLE 4W N/A         72  48  43  NE3     29.63S
#CENTERVILLE 1SWN/A         71  50  47  CALM    29.77F
#GOLDENDALE     N/A         72  45  38  W2      N/A
#GOLDENDALE 1NE N/A         71  41  34  CALM    N/A
#GOLDENDALE 1S  N/A         72  50  46  CALM    29.84F
#GOLDENDALE 5WNWN/A         73  50  44  CALM    29.78F
#GOODNOE HILLS  N/A         79  50  36  NW9     29.78F
#LYLE 6NE       N/A         67  51  56  CALM    29.78F
$$

WAZ026-232210-
KITTITAS VALLEY

CITY            SKY/WX      TMP DP  RH  WIND    PRES   REMARKS
ELLENSBURG AP   MOCLDY      69  53  57  CALM    29.86F
#ELLENSBURG CWU N/A         66  53  63  N2      29.78F
#ELLENSBURG 3NE N/A         65  56  73  CALM    29.88F
#ELLENSBURG     N/A         69  57  66  S2      N/A
#KITTITAS 3S    N/A         64  56  75  CALM    29.80F
#THORP 6N       N/A         61  50  67  N5      29.82F
$$

WAZ027-232210-
YAKIMA VALLEY

CITY            SKY/WX      TMP DP  RH  WIND    PRES   REMARKS
SUNNYSIDE AP    PTCLDY      70  59  68  CALM    29.82F
YAKIMA AIRPORT  MOCLDY      73  51  46  W7      29.85R
YAKIMA-VAGABOND CLOUDY      73  50  44  W10     29.87R
#COWICHE 1N     N/A         69  52  55  CALM    30.03S
#DONALD 2NE     N/A         76  58  54  E1      30.17R
#GRANDVIEW      N/A         74  54  50  CALM    29.80F
#MABTON         N/A         73  54  51  CALM    29.83S
#MOXEE 2E       N/A         72  39  30  W3      29.77F
#NACHES 2SW     N/A         70  55  59  CALM    29.89S
#TERRACE HTS    N/A         72  53  51  CALM    29.76R
#TOPPENISH      N/A         72  53  51  S2      29.72F
#WAPATO 4NE     N/A         76  58  54  E1      30.17R
#WEST VALLEY    N/A         71  51  49  CALM    29.79
#W YAKIMA       N/A         72  52  49  CALM    29.80R
#WHITE SWAN 5E  N/A         73  54  51  CALM    29.80F
#WILEY CITY 3W  N/A         70  48  46  CALM    29.84F
$$

WAZ028-232210-
LOWER COLUMBIA BASIN...WASHINGTON

CITY            SKY/WX      TMP DP  RH  WIND    PRES   REMARKS
HANFORD         CLOUDY      77  54  45  N5      29.82S
PASCO           CLOUDY      78  57  48  CALM    29.83S
PROSSER AWOS    N/A         77  55  47  NE6     29.84F
RICHLAND AWOS   CLOUDY      79  54  42  CALM    29.83S
#BASIN CITY 5SW N/A         75  60  60  CALM    29.83S
#BENTON CITY    N/A         77  51  40  CALM    29.70F
#CONNELL 5N     N/A         76  55  48  W6      29.80S
#CONNELL 5NW    N/A         74  59  59  SW5     29.77R
#ELTOPIA        N/A         80  55  42  CALM    29.77S
#ELTOPIA 6NW    N/A         73  59  62  CALM    28.82S
#KENNEWICK 3S   N/A         76  61  60  CALM    29.80F
#PASCO-BROADMOORN/A         81  54  39  S1      29.69F
#PATERSON       N/A         76  51  42  NE1     29.78F
#PROSSER        N/A         77  49  37  CALM    29.79F
#SAGEMOOR 2W    N/A         75  60  60  CALM    29.67S
#TOUCHET 2S     N/A         80  61  52  N1      29.78S
#WEST PASCO     N/A         79  61  54  CALM    29.80S
$$

WAZ029-232210-
FOOTHILLS OF THE BLUES...WASHINGTON

CITY            SKY/WX      TMP DP  RH  WIND    PRES   REMARKS
WALLA WALLA AP  CLOUDY      81  57  44  W12     29.85F
#DAYTON SCHOOL  N/A         81  53  38  SW2     29.85F
#DELANEY DOT    N/A         83  52  34  S7      N/A
#LOWDEN 2SE     N/A         80  62  54  N2      29.78F
#PLEASANT VIEW 1N/A         78  53  42  S9      29.83S
#PRESCOTT       N/A         82  59  46  W2      29.78S
#SUDBURY        N/A         82  N/A N/A W8      N/A
#WHITMAN COLLEGEN/A         79  60  52  W3      29.84S
#WAITSBURG 8N   N/A         80  40  24  S9      29.79S
#WALLA WALLA 5E N/A         68  59  73  W7      N/A
#WALLA WALLA U  N/A         80  61  52  W1      29.78F
#WHITMAN MISSIONN/A         79  62  56  NW3     29.80F
$$

WAZ030-232210-
BLUE MOUNTAINS...WASHINGTON

CITY            SKY/WX      TMP DP  RH  WIND    PRES   REMARKS
$$

ORZ009-041-WAZ024-232210-
COLUMBIA RIVER GORGE

CITY            SKY/WX      TMP DP  RH  WIND    PRES   REMARKS
THE DALLES AP   MOCLDY      71  52  51  NW5     29.82F
#ARLINGTON AIRPON/A         77  52  42  W8      29.95S
#ARLINGTON HS   N/A         80  49  34  NW3     29.68F
#MARYHILL       N/A         71  52  51  W1      N/A
#MARYHILL 2W    N/A         71  54  55  S1      N/A
#MOSIER 1S      N/A         69  44  40  CALM    29.85F
#MURDOCK        N/A         70  55  59  W3      29.82F
#RUFUS DOT      N/A         N/A N/A N/A S10     N/A

$$

ORZ510-232210-
NORTH CENTRAL OREGON

CITY            SKY/WX      TMP DP  RH  WIND    PRES   REMARKS
#CHENOWITH 1W   N/A         70  47  44  W5      N/A
#COW CYN RST AREN/A         72  47  41  S2      N/A
#DUFUR 9E       N/A         67  50  54  NE2     29.84F
#GRASS VALLEY   N/A         70  47  44  CALM    N/A
#GRASS VALLEY 1SN/A         72  49  44  W2      29.82F
#KENT DOT       N/A         74  47  38  W10     N/A
#MAUPIN SCHOOL  N/A         72  49  44  CALM    28.71F
#MORO SCHOOL    N/A         73  54  51  W7      29.88F
#SHANIKO 5WSW   N/A         71  46  41  S14     N/A
#SHANIKO 4NW    N/A         70  44  39  S7      29.93F
#TYGH VALLEY 2NEN/A         70  52  53  CALM    29.79F
#WAPANITIA AIRPON/A         72  49  44  CALM    29.80F
#WASCO DOT      N/A         75  52  45  W2      N/A
#WASCO 5NE      N/A         75  50  41  CALM    29.79F
$$

ORZ511-232210-
CENTRAL OREGON

CITY            SKY/WX      TMP DP  RH  WIND    PRES   REMARKS
BEND AIRPORT    CLOUDY      73  46  38  SW10    29.95F
MADRAS AIRPORT  PTCLDY      77  46  33  W5      29.90F
REDMOND AIRPORT CLOUDY      76  45  33  S8      29.91F
#BEND 6E        N/A         74  42  32  CALM    29.72F
#BEND 1SW       N/A         74  48  40  E1      N/A
#BEND-AWBREY    N/A         74  49  41  N9      29.77F
#BEND-KIM LN    N/A         74  52  46  SW3     29.91F
#CROOKED RVR RANN/A         77  49  37  W9      29.74F
#CULVER         N/A         78  50  38  E9      29.84F
#LAKE BILLY CHINN/A         79   6   6  W2      29.90F
#POWELL BUTTE 3EN/A         75  46  36  S7      N/A
#POWELL BUTTE   N/A         74  47  38  SW5     29.58F
#PRINEVILLE 3N  N/A         73  52  48  E3      29.74F


ORZ509-232210-
EAST SLOPES OF OREGON CASCADES

CITY            SKY/WX      TMP DP  RH  WIND    PRES   REMARKS
#BLUE BOX PASS  N/A         63   8  11  NW2     N/A
#CAMP SHERMAN   N/A         77  47  35  CALM    29.76F
#LA PINE DOT    N/A         70  39  32  S8      N/A
#LA PINE 4NW    N/A         69  48  47  S2      29.85S
#LAVA BUTTE DOT N/A         69  43  39  SE3     N/A
#SISTERS AIRPOR N/A         75  55  50  N7      29.91S
#SISTERS ODOT   N/A         75  N/A N/A N6      N/A
#SISTERS 3N     N/A         74  48  40  S3      N/A
#SUNRIVER       N/A         70  49  47  S2      29.68F
#SUNRIVER AP    N/A         68  48  49  SW9     29.76F
#SUTTLE LK DOT  N/A         65  49  56  E3      N/A
#TUMALO 3W      N/A         73  48  41  S10     29.66F
#WANOGA BUTTE D N/A         60  45  58  W12     N/A

$$

ORZ044-232210-
LOWER COLUMBIA BASIN...OREGON

CITY            SKY/WX      TMP DP  RH  WIND    PRES   REMARKS
HERMISTON       CLOUDY      78  53  42  CALM    29.82F
#BOARDMAN SCHOOLN/A         60  53  78  CALM    29.80F
#BOARDMAN 3W    N/A         79  57  47  N5      29.50F
#BOARDMAN 8SW   N/A         80  56  44  W1      29.78F
#ECHO 8SW       N/A         78  55  45  N1      29.80F
#IONE SCHOOL    N/A         78  54  43  CALM    29.83F
#IRRIGON 4NW    N/A         77  53  43  N2      N/A
#UMATILLA       N/A         80  53  39  CALM    29.79F
$$

ORZ507-232210-
NORTHERN FOOTHILLS OF THE BLUES

CITY            SKY/WX      TMP DP  RH  WIND    PRES   REMARKS
PENDLETON AIRPT CLOUDY      77  54  45  NW10    29.85S
#ADAMS 3WNW     N/A         78  60  54  NW1     29.78F
#ATHENA         N/A         79  55  44  W1      29.81F
#HELIX SCHOOL   N/A         77  57  50  CALM    29.80S
#HELIX 3N       N/A         76  55  48  NW5     29.85F
#HELIX 6SW      N/A         77  56  48  W6      29.86S
#HOLDMAN 5SE    N/A         77  55  47  NW1     29.86S
#HOLDMAN 6E     N/A         77  54  45  E5      29.62S
#M-F GROVE ELEM N/A         77  59  54  CALM    29.83F
#M-FREEWATER 5SEN/A         79  64  60  CALM    29.85S
#PENDLETON DNTN N/A         75  57  54  CALM    29.85S
#PDT AQUATIC CTRN/A         77  62  60  NW3     29.85S
#PENDLETON 5NE  N/A         79  61  54  CALM    29.82F
#PDT SUNRIDGE   N/A         77  58  52  NW3     29.85S
#PENDLETON 7NW  N/A         75  58  56  CALM    25.60R
#PILOT ROCK     N/A         84  48  29  SE9     29.87S
#TUTUILLA       N/A         78  58  50  N1      29.81F
#UMAPINE 2E     N/A         80  66  62  CALM    29.80S

$$

ORZ508-232210-
SOUTHERN FOOTHILLS OF THE BLUES

CITY            SKY/WX      TMP DP  RH  WIND    PRES   REMARKS
LEXINGTON       PTCLDY      81  54  39  N6      29.87F
#AJAX           N/A         75  45  34  SW2     29.83F
#CONDON SCHOOL  N/A         75  53  46  CALM    29.87F
#CONDON 5W      N/A         72  49  44  S5      29.91F
#FOSSIL SCHOOL  N/A         76  50  40  S5      29.88F
#HEPPNER 4NE    N/A         75  53  46  NW7     29.78F
#LEXINGTON 2SE  N/A         80  55  42  CALM    29.80F
#MIKKALO        N/A         77  47  35  NW7     29.86F
#OLEX 4N        N/A         78  51  39  W2      29.83F
#RUGGS 5NE      N/A         77  52  42  W7      30.04F
#RUGGS 2SW      N/A         79  48  34  SW7     29.79S

$$

ORZ502-503-232210-
BLUE MOUNTAINS

CITY            SKY/WX      TMP DP  RH  WIND    PRES   REMARKS
MEACHAM         CLOUDY      74  54  50  CALM    29.98S
#BATTLE MTN DOT N/A         70  49  47  S10     N/A
#HARDMAN 10S    N/A         69  47  45  S5      30.05S
#HEPPNER 15SE   N/A         73  48  41  S3      29.89F
#LADD CYN SMT   N/A         69  47  45  SE2     N/A
#LADD CREEK ODOTN/A         72  52  49  SW5     N/A
#N POWDER DOT   N/A         75  51  43  S9      N/A
#PIKES PEAK     N/A         71  53  53  SW7     27.99S
#TOLLGATE       N/A         65  50  58  SW1     29.97F
#TROY SCHOOL    N/A         77  62  60  CALM    29.67F
#UKIAH          N/A         76  50  40  SE5     29.84F
#WESTON 4E      N/A         75  50  41  SE5     29.75F
$$

ORZ505-232210-
JOHN DAY BASIN

CITY            SKY/WX      TMP DP  RH  WIND    PRES   REMARKS
JOHN DAY        CLOUDY      78  42  28  SW15    29.98F
#JOHN DAY KJDY  N/A         77  44  31  CALM    30.09F
#MONUMENT HS    N/A         78  51  39  CALM    29.91F
#MT. VERNON 5SE N/A         73  44  35  SE6     29.96S
#WINLOCK        N/A         75  50  41  CALM    30.02F
$$

ORZ506-232210-
OCHOCO AND JOHN DAY HIGHLANDS

CITY            SKY/WX      TMP DP  RH  WIND    PRES   REMARKS
#BUCK CREEK DOT N/A         74  47  38  W5      N/A
#HORSE RIDGE DO N/A         70  43  38  S9      N/A
#KEYES SMT DOT  N/A         71  -40  1  S7      N/A
#PAULINA SCHOOL N/A         74  41  30  S6      29.98F
#PINE MTN OBS   N/A         59  44  57  S16G25  N/A
#PRAIRIE CITY   N/A         77  44  31  CALM    29.79F
#SENECA 9NW     N/A         70  41  35  W2      29.84S
$$

ORZ049-232210-
GRANDE RONDE VALLEY

CITY            SKY/WX      TMP DP  RH  WIND    PRES   REMARKS
LA GRANDE       CLOUDY      73  52  48  SE7     29.94F
#COVE           N/A         76  55  48  S3      29.87F
#COVE SCHOOL    N/A         76  52  43  CALM    29.93F
#COVE 6NW       N/A         73  56  55  S3      29.87F
#ELGIN 3N       N/A         74  54  50  S12     29.67F
#ELGIN 1E       N/A         76  60  58  CALM    N/A
#IMBLER SCHOOL  N/A         73  58  59  S5      29.90F
#LADD CYN DOT   N/A         73  51  46  S14     N/A
#LA GRANDE ELEM N/A         74  56  53  E2      29.92F
#UNION 1S       N/A         76  53  45  S6      29.74F
$$

ORZ050-232210-
WALLOWA COUNTY

CITY            SKY/WX      TMP DP  RH  WIND    PRES   REMARKS
#ENTERPRISE AP  N/A         72  53  51  W1      29.94F
#ENTERPRISE HS  N/A         73  56  55  CALM    29.97F
#IMNAHA SCHOOL  N/A         84  47  28  SW10    29.77F
#IMNAHA 10S     N/A         80  51  36  SW10    29.93F
#JOSEPH 3N      N/A         71  56  59  NW5     30.01F
#JOSEPH 3W      N/A         71  52  51  E3      29.88S
#LOSTINE        N/A         73  58  59  CALM    29.65F
#MT HOWARD 8000 N/A         57  40  53  SW8     30.22F
#PROMISE 1S     N/A         68  58  70  S2      29.95F
#SHEEP RDG 7000 N/A         61  38  42  CALM    29.82F
#WALLOWA SCHOOL N/A         73  58  59  CALM    30.72F



$$



USA.gov is the U.S. government's official web portal to all federal, state and local government web resources and services.